When you browse on this site, cookies collect data to enhance your experience and personalize the content and advertising you see.
Visit our Privacy Policy to learn more. By continuing to use the site, you agree to this use of cookies and data.
  • In Hungary
  • List of Countries
  • For 7 days
  • Water Temperature
  • Weather Map
  • News
  • Weather Widgets
  • user-avatar
    Login

    Hourly Weather Brunishevo

    Today, 16 October, Wednesday

    Time Temperature Precipitation Wind Pressure Humidity
    00:00 +4°C° 0 mm 4 mps 750 mmHg 88%
    01:00 +4°C° 0 mm 4 mps 749 mmHg 89%
    02:00 +4°C° 0 mm 4 mps 749 mmHg 91%
    03:00 +5°C° 0 mm 4 mps 748 mmHg 91%
    04:00 +5°C° 0 mm 4 mps 747 mmHg 92%
    05:00 +6°C° 0 mm 4 mps 746 mmHg 92%
    06:00 +6°C° 0 mm 4 mps 746 mmHg 92%
    07:00 +7°C° 0 mm 4 mps 746 mmHg 93%
    08:00 +7°C° 0 mm 4 mps 745 mmHg 93%
    09:00 +10°C° 0 mm 4 mps 745 mmHg 89%
    10:00 +11°C° 0 mm 4 mps 745 mmHg 84%
    11:00 +13°C° 0 mm 4 mps 744 mmHg 80%
    12:00 +14°C° 0 mm 4 mps 744 mmHg 77%
    13:00 +15°C° 0 mm 4 mps 744 mmHg 75%
    14:00 +17°C° 0 mm 4 mps 743 mmHg 72%
    15:00 +16°C° 0 mm 3 mps 743 mmHg 78%
    16:00 +13°C° 0 mm 3 mps 743 mmHg 83%
    17:00 +13°C° 0 mm 2 mps 742 mmHg 89%
    18:00 +13°C° 0 mm 2 mps 742 mmHg 90%
    19:00 +12°C° 0 mm 2 mps 742 mmHg 92%
    20:00 +12°C° 0 mm 2 mps 742 mmHg 93%
    21:00 +10°C° 0 mm 2 mps 742 mmHg 94%
    22:00 +10°C° 0 mm 2 mps 742 mmHg 95%
    23:00 +10°C° 0 mm 2 mps 741 mmHg 96%

    Tomorrow, 17 October, Thursday

    Time Temperature Precipitation Wind Pressure Humidity
    00:00 +10°C° 0 mm 2 mps 742 mmHg 96%
    01:00 +10°C° 0 mm 2 mps 742 mmHg 96%
    02:00 +10°C° 0 mm 2 mps 742 mmHg 96%
    03:00 +10°C° 0.1 mm 2 mps 742 mmHg 96%
    04:00 +12°C° 0.1 mm 2 mps 742 mmHg 96%
    05:00 +12°C° 0.1 mm 2 mps 741 mmHg 96%
    06:00 +12°C° 0.1 mm 2 mps 741 mmHg 97%
    07:00 +12°C° 0.1 mm 2 mps 741 mmHg 97%
    08:00 +12°C° 0.1 mm 2 mps 741 mmHg 97%
    09:00 +12°C° 0.6 mm 2 mps 741 mmHg 94%
    10:00 +13°C° 0.6 mm 2 mps 742 mmHg 91%
    11:00 +13°C° 0.6 mm 2 mps 742 mmHg 89%
    12:00 +13°C° 0.4 mm 2 mps 742 mmHg 85%
    13:00 +14°C° 0.4 mm 2 mps 742 mmHg 81%
    14:00 +14°C° 0.4 mm 2 mps 742 mmHg 78%
    15:00 +13°C° 0 mm 2 mps 742 mmHg 81%
    16:00 +12°C° 0 mm 2 mps 743 mmHg 85%
    17:00 +10°C° 0 mm 2 mps 743 mmHg 88%
    18:00 +11°C° 0 mm 1 mps 743 mmHg 90%
    19:00 +10°C° 0 mm 1 mps 743 mmHg 91%
    20:00 +10°C° 0 mm 1 mps 744 mmHg 93%
    21:00 +10°C° 0 mm 1 mps 744 mmHg 94%
    22:00 +9°C° 0 mm 2 mps 745 mmHg 95%
    23:00 +10°C° 0 mm 2 mps 745 mmHg 96%

    Day after tomorrow, 18 October, Friday

    Time Temperature Precipitation Wind Pressure Humidity
    00:00 +10°C° 0 mm 2 mps 745 mmHg 95%
    01:00 +10°C° 0 mm 2 mps 745 mmHg 94%
    02:00 +10°C° 0 mm 2 mps 746 mmHg 93%
    03:00 +10°C° 0 mm 2 mps 746 mmHg 94%
    04:00 +10°C° 0 mm 2 mps 746 mmHg 95%
    05:00 +10°C° 0 mm 2 mps 746 mmHg 96%
    06:00 +10°C° 0 mm 2 mps 746 mmHg 96%
    07:00 +10°C° 0 mm 2 mps 746 mmHg 95%
    08:00 +10°C° 0 mm 2 mps 746 mmHg 95%
    09:00 +10°C° 0 mm 2 mps 746 mmHg 94%
    10:00 +12°C° 0 mm 2 mps 746 mmHg 94%
    11:00 +12°C° 0 mm 2 mps 746 mmHg 93%
    12:00 +13°C° 0 mm 2 mps 747 mmHg 92%
    13:00 +13°C° 0 mm 2 mps 747 mmHg 90%
    14:00 +13°C° 0 mm 3 mps 747 mmHg 89%
    15:00 +13°C° 0.1 mm 2 mps 747 mmHg 91%
    16:00 +13°C° 0.1 mm 2 mps 747 mmHg 92%
    17:00 +12°C° 0.1 mm 2 mps 747 mmHg 94%
    18:00 +12°C° 0 mm 2 mps 747 mmHg 95%
    19:00 +10°C° 0 mm 2 mps 747 mmHg 96%
    20:00 +10°C° 0 mm 1 mps 748 mmHg 96%
    21:00 +10°C° 0 mm 1 mps 748 mmHg 96%
    22:00 +10°C° 0 mm 1 mps 748 mmHg 95%
    23:00 +9°C° 0 mm 1 mps 748 mmHg 95%

    19 October, Saturday

    Time Temperature Precipitation Wind Pressure Humidity
    00:00 +9°C° 0 mm 1 mps 748 mmHg 95%
    01:00 +9°C° 0 mm 2 mps 748 mmHg 96%
    02:00 +9°C° 0 mm 2 mps 748 mmHg 97%
    03:00 +9°C° 0 mm 2 mps 748 mmHg 97%
    04:00 +9°C° 0 mm 2 mps 747 mmHg 97%
    05:00 +9°C° 0 mm 2 mps 747 mmHg 96%
    06:00 +10°C° 0 mm 3 mps 747 mmHg 96%
    07:00 +10°C° 0 mm 3 mps 747 mmHg 95%
    08:00 +10°C° 0 mm 3 mps 747 mmHg 94%
    09:00 +10°C° 0 mm 3 mps 747 mmHg 92%
    10:00 +11°C° 0 mm 3 mps 747 mmHg 90%
    11:00 +12°C° 0 mm 3 mps 747 mmHg 88%
    12:00 +12°C° 0 mm 3 mps 747 mmHg 88%
    13:00 +12°C° 0 mm 3 mps 747 mmHg 88%
    14:00 +13°C° 0 mm 2 mps 747 mmHg 87%
    15:00 +13°C° 0 mm 2 mps 747 mmHg 90%
    16:00 +12°C° 0 mm 2 mps 747 mmHg 92%
    17:00 +12°C° 0 mm 1 mps 747 mmHg 95%
    18:00 +12°C° 0 mm 1 mps 748 mmHg 95%
    19:00 +12°C° 0 mm 1 mps 748 mmHg 96%
    20:00 +12°C° 0 mm 1 mps 748 mmHg 96%
    21:00 +12°C° 0.1 mm 1 mps 748 mmHg 97%
    22:00 +12°C° 0.1 mm 1 mps 748 mmHg 97%
    23:00 +10°C° 0.1 mm 0 mps 748 mmHg 97%

    20 October, Sunday

    Time Temperature Precipitation Wind Pressure Humidity
    00:00 +10°C° 0 mm 0 mps 748 mmHg 97%
    01:00 +10°C° 0 mm 0 mps 749 mmHg 97%
    02:00 +10°C° 0 mm 0 mps 749 mmHg 97%
    03:00 +10°C° 0 mm 0 mps 749 mmHg 97%
    04:00 +10°C° 0 mm 0 mps 749 mmHg 97%
    05:00 +10°C° 0 mm 0 mps 749 mmHg 96%
    06:00 +11°C° 0 mm 1 mps 749 mmHg 97%
    07:00 +11°C° 0 mm 1 mps 749 mmHg 97%
    08:00 +11°C° 0 mm 1 mps 749 mmHg 97%
    09:00 +12°C° 0 mm 1 mps 750 mmHg 95%
    10:00 +13°C° 0 mm 2 mps 750 mmHg 92%
    11:00 +14°C° 0 mm 2 mps 750 mmHg 89%
    12:00 +14°C° 0 mm 2 mps 750 mmHg 88%
    13:00 +14°C° 0 mm 2 mps 749 mmHg 87%
    14:00 +15°C° 0 mm 2 mps 749 mmHg 86%
    15:00 +14°C° 0 mm 2 mps 749 mmHg 90%
    16:00 +13°C° 0 mm 2 mps 749 mmHg 93%
    17:00 +12°C° 0 mm 2 mps 748 mmHg 96%
    18:00 +12°C° 0 mm 2 mps 748 mmHg 96%
    19:00 +12°C° 0 mm 2 mps 748 mmHg 96%
    20:00 +10°C° 0 mm 2 mps 748 mmHg 97%
    21:00 +10°C° 0 mm 2 mps 748 mmHg 97%
    22:00 +10°C° 0 mm 2 mps 748 mmHg 97%
    23:00 +9°C° 0 mm 2 mps 747 mmHg 97%

    21 October, Monday

    Time Temperature Precipitation Wind Pressure Humidity
    00:00 +9°C° 0 mm 2 mps 747 mmHg 97%
    01:00 +9°C° 0 mm 2 mps 747 mmHg 97%
    02:00 +9°C° 0 mm 2 mps 747 mmHg 97%
    03:00 +9°C° 0 mm 2 mps 747 mmHg 97%
    04:00 +9°C° 0 mm 2 mps 747 mmHg 97%
    05:00 +9°C° 0 mm 3 mps 747 mmHg 97%
    06:00 +10°C° 0 mm 3 mps 747 mmHg 97%
    07:00 +10°C° 0 mm 3 mps 747 mmHg 96%
    08:00 +10°C° 0 mm 4 mps 747 mmHg 96%
    09:00 +11°C° 0 mm 4 mps 748 mmHg 93%
    10:00 +11°C° 0 mm 4 mps 748 mmHg 91%
    11:00 +12°C° 0 mm 4 mps 748 mmHg 88%
    12:00 +10°C° 0 mm 5 mps 749 mmHg 84%
    13:00 +10°C° 0 mm 5 mps 749 mmHg 81%
    14:00 +10°C° 0 mm 6 mps 749 mmHg 77%
    15:00 +9°C° 0 mm 5 mps 750 mmHg 78%
    16:00 +9°C° 0 mm 5 mps 750 mmHg 79%
    17:00 +8°C° 0 mm 4 mps 751 mmHg 80%
    18:00 +8°C° 0 mm 4 mps 751 mmHg 79%
    19:00 +7°C° 0 mm 4 mps 752 mmHg 77%
    20:00 +8°C° 0 mm 3 mps 752 mmHg 76%
    21:00 +7°C° 0 mm 3 mps 753 mmHg 79%
    22:00 +5°C° 0 mm 3 mps 753 mmHg 83%
    23:00 +5°C° 0 mm 3 mps 753 mmHg 86%
    Show more